KB2KMM Weather Reports


Display with metric or nautical units.
time (UTC)temp
F
wind
direction
speed
MPH
gust
MPH
rain 1hr
in
rain 24hr
in
rain mn
in
humidity
%
barometer
mb
20260506071505 56 319 3.0 15.0 0.00 0.00 0.00 100 1011.8
20260506071005 56 285 7.0 15.0 0.00 0.00 0.00 100 1011.8
20260506070505 56 293 6.0 14.0 0.00 0.00 0.00 100 1011.7
20260506062505 56 265 6.0 14.0 0.00 0.00 0.00 99 1011.7
20260506062006 56 282 5.0 14.0 0.00 0.00 0.00 99 1011.7
20260506061505 57 258 5.0 12.0 0.00 0.00 0.00 99 1011.6
20260506061005 57 280 6.0 14.0 0.00 0.00 0.00 99 1011.6
20260506060505 57 249 5.0 14.0 0.00 0.00 0.00 99 1011.6
20260506051005 57 292 8.0 17.0 0.00 0.00 0.00 96 1011.8
20260506050505 57 274 4.0 17.0 0.00 0.00 0.00 96 1012.0
20260506045005 57 297 8.0 17.0 0.00 0.00 0.00 96 1012.0
20260506044505 57 280 6.0 16.0 0.00 0.00 0.00 96 1012.0
20260506044005 57 295 6.0 17.0 0.00 0.00 0.00 95 1012.0
20260506043505 58 283 6.0 17.0 0.00 0.00 0.00 95 1011.9
20260506043005 58 301 6.0 16.0 0.00 0.00 0.00 95 1012.0
20260506042505 58 302 7.0 15.0 0.00 0.00 0.00 94 1012.0
20260506042005 58 291 6.0 17.0 0.00 0.00 0.00 94 1011.9
20260506041505 58 295 9.0 20.0 0.00 0.00 0.00 94 1011.9
20260506041005 58 299 9.0 20.0 0.00 0.00 0.00 94 1012.0
20260506040505 58 308 6.0 16.0 0.00 0.00 0.00 93 1012.0
20260506040005 58 288 4.0 16.0 0.00 0.00 0.00 93 1012.1
20260506035506 58 306 5.0 16.0 0.00 0.00 0.00 93 1012.0
20260506035005 58 296 9.0 16.0 0.00 0.00 0.00 93 1011.9
20260506034505 58 261 4.0 21.0 0.00 0.00 0.00 93 1011.9
20260506034006 58 294 9.0 21.0 0.00 0.00 0.00 93 1011.9
20260506033505 58 302 6.0 17.0 0.00 0.00 0.00 93 1012.0
20260506033005 58 303 3.0 15.0 0.00 0.00 0.00 93 1011.9
20260506032504 58 303 5.0 15.0 0.00 0.00 0.00 93 1011.9
20260506032005 58 310 3.0 21.0 0.00 0.00 0.00 93 1011.9
20260506031505 58 288 7.0 21.0 0.00 0.00 0.00 93 1011.9
20260506031006 58 301 5.0 14.0 0.00 0.00 0.00 93 1011.9
20260506030505 58 293 7.0 14.0 0.00 0.00 0.00 93 1012.0
20260506030005 58 302 6.0 14.0 0.00 0.00 0.00 93 1012.0
20260506025505 58 305 3.0 18.0 0.00 0.00 0.00 93 1012.1
20260506025005 58 297 5.0 18.0 0.00 0.00 0.00 93 1012.1
20260506024505 58 304 6.0 18.0 0.00 0.00 0.00 93 1012.0
20260506024005 58 296 5.0 16.0 0.00 0.00 0.00 93 1012.0
20260506023505 58 297 6.0 20.0 0.00 0.00 0.00 92 1012.0
20260506023005 58 304 5.0 20.0 0.00 0.00 0.00 91 1012.1
20260506022505 58 295 4.0 20.0 0.00 0.00 0.00 91 1012.0
20260506022005 58 308 7.0 22.0 0.00 0.00 0.00 91 1012.1
20260506021505 58 312 6.0 22.0 0.00 0.00 0.00 90 1012.0
20260506021005 59 297 7.0 20.0 0.00 0.00 0.00 89 1012.0
20260506020505 59 313 7.0 20.0 0.00 0.00 0.00 89 1012.0
20260506020005 59 322 7.0 16.0 0.00 0.00 0.00 87 1012.1
20260506015505 59 311 6.0 16.0 0.00 0.00 0.00 86 1012.0
20260506015005 59 315 4.0 16.0 0.00 0.00 0.00 86 1011.9
20260506014505 59 313 7.0 16.0 0.00 0.00 0.00 85 1011.8
20260506014005 59 309 6.0 16.0 0.00 0.00 0.00 83 1011.7
20260506013505 60 317 5.0 20.0 0.00 0.00 0.00 82 1011.7
20260506013005 60 325 5.0 20.0 0.00 0.00 0.00 80 1011.7
20260506012505 60 344 8.0 23.0 0.00 0.00 0.00 79 1011.5
20260506012005 60 340 7.0 23.0 0.00 0.00 0.00 79 1011.6
20260506011505 60 342 9.0 21.0 0.00 0.00 0.00 78 1011.5
20260506011005 61 336 9.0 21.0 0.00 0.00 0.00 78 1011.5
20260506010505 61 330 6.0 21.0 0.00 0.00 0.00 78 1011.4
20260506010005 61 337 7.0 21.0 0.00 0.00 0.00 76 1011.2
20260506005505 61 335 6.0 22.0 0.00 0.00 0.00 76 1011.2
20260506005005 61 336 5.0 22.0 0.00 0.00 0.00 76 1011.2
20260506004505 61 340 6.0 20.0 0.00 0.00 0.00 76 1011.1
20260506004006 61 332 6.0 17.0 0.00 0.00 0.00 76 1011.1
20260506003505 61 341 7.0 26.0 0.00 0.00 0.00 76 1011.0
20260506003008 61 352 9.0 26.0 0.00 0.00 0.00 77 1010.9
20260506002505 61 352 11.0 26.0 0.00 0.00 0.00 78 1010.9
20260506002009 61 356 8.0 24.0 0.00 0.00 0.00 78 1010.9
20260506001505 60 358 9.0 28.0 0.00 0.00 0.00 78 1010.7
20260506001008 60 357 7.0 28.0 0.00 0.00 0.00 78 1010.7
20260506000505 60 350 9.0 25.0 0.00 0.00 0.00 79 1010.7
20260506000005 60 347 8.0 24.0 0.00 0.00 0.00 79 1010.6
20260505235505 60 347 5.0 20.0 0.00 0.00 0.00 79 1010.6
20260505235009 60 350 6.0 22.0 0.00 0.00 0.00 79 1010.6
20260505234505 60 349 8.0 22.0 0.00 0.00 0.00 78 1010.5
20260505234009 60 345 7.0 20.0 0.00 0.00 0.00 78 1010.3
20260505233507 60 343 7.0 22.0 0.00 0.00 0.00 77 1010.1
20260505233010 61 335 9.0 22.0 0.00 0.00 0.00 75 1010.1
20260505232505 61 324 5.0 20.0 0.00 0.00 0.00 74 1010.1
20260505232009 61 324 9.0 20.0 0.00 0.00 0.00 73 1010.0
20260505231505 62 315 7.0 22.0 0.00 0.00 0.00 71 1010.0
20260505231008 62 210 10.0 22.0 0.00 0.00 0.00 70 1009.9
20260505230505 63 216 9.0 17.0 0.00 0.00 0.00 69 1009.8
20260505230005 63 213 6.0 24.0 0.00 0.00 0.00 68 1009.8
20260505225505 63 213 8.0 24.0 0.00 0.00 0.00 68 1009.9
20260505225009 63 230 7.0 24.0 0.00 0.00 0.00 68 1009.8
20260505224505 63 208 7.0 20.0 0.00 0.00 0.00 67 1009.7
20260505224009 63 221 10.0 20.0 0.00 0.00 0.00 66 1009.7
20260505223505 63 204 7.0 20.0 0.00 0.00 0.00 66 1009.6
20260505223010 63 185 7.0 20.0 0.00 0.00 0.00 65 1009.6
20260505222504 64 217 9.0 22.0 0.00 0.00 0.00 64 1009.6
20260505222008 64 215 8.0 28.0 0.00 0.00 0.00 63 1009.6
20260505221505 65 208 7.0 28.0 0.00 0.00 0.00 61 1009.5
20260505221008 65 177 6.0 18.0 0.00 0.00 0.00 63 1009.6
20260505220505 65 216 6.0 20.0 0.00 0.00 0.00 63 1009.5
20260505220004 65 231 9.0 20.0 0.00 0.00 0.00 61 1009.6
20260505215506 65 218 6.0 23.0 0.00 0.00 0.00 61 1009.5
20260505215010 65 187 5.0 23.0 0.00 0.00 0.00 61 1009.6
20260505214505 65 212 10.0 21.0 0.00 0.00 0.00 60 1009.5
20260505214009 65 212 4.0 18.0 0.00 0.00 0.00 60 1009.4
20260505213505 66 187 6.0 20.0 0.00 0.00 0.00 59 1009.3
20260505213009 66 213 9.0 20.0 0.00 0.00 0.00 58 1009.3
20260505212505 66 217 7.0 18.0 0.00 0.00 0.00 59 1009.2
20260505212008 66 214 5.0 15.0 0.00 0.00 0.00 60 1009.1
20260505211507 66 202 7.0 20.0 0.00 0.00 0.00 60 1009.2
20260505211008 66 219 8.0 21.0 0.00 0.00 0.00 59 1009.1
20260505210505 66 233 9.0 21.0 0.00 0.00 0.00 59 1009.0
20260505210006 66 195 6.0 17.0 0.00 0.00 0.00 58 1009.2
20260505205506 67 211 6.0 20.0 0.00 0.00 0.00 57 1009.1
20260505205010 67 214 7.0 20.0 0.00 0.00 0.00 57 1009.2
20260505204505 67 201 4.0 17.0 0.00 0.00 0.00 59 1009.2
20260505204012 66 238 6.0 17.0 0.00 0.00 0.00 60 1009.2
20260505203504 66 219 6.0 13.0 0.00 0.00 0.00 59 1009.2
20260505203009 66 192 5.0 13.0 0.00 0.00 0.00 60 1009.3
20260505202505 66 217 5.0 18.0 0.00 0.00 0.00 59 1009.3
20260505202010 67 189 6.0 18.0 0.00 0.00 0.00 58 1009.3
20260505201505 67 222 5.0 14.0 0.00 0.00 0.00 59 1009.5
20260505201008 67 227 5.0 16.0 0.00 0.00 0.00 56 1009.6
20260505200505 68 204 7.0 16.0 0.00 0.00 0.00 55 1009.6
20260505200005 69 189 5.0 12.0 0.00 0.00 0.00 55 1009.6
20260505195505 68 159 2.0 12.0 0.00 0.00 0.00 56 1009.8
20260505195009 68 190 5.0 12.0 0.00 0.00 0.00 56 1009.8
20260505194505 68 209 4.0 17.0 0.00 0.00 0.00 56 1009.8
20260505194009 68 238 6.0 17.0 0.00 0.00 0.00 55 1009.8
20260505193505 69 228 4.0 17.0 0.00 0.00 0.00 56 1010.0
20260505193010 69 234 8.0 17.0 0.00 0.00 0.00 54 1009.9
20260505192505 69 195 2.0 12.0 0.00 0.00 0.00 59 1010.1
20260505192009 68 231 3.0 12.0 0.00 0.00 0.00 60 1010.3
20260505191505 67 199 3.0 12.0 0.00 0.00 0.00 61 1010.2
20260505191008 67 241 3.0 20.0 0.00 0.00 0.00 63 1010.3
20260505190505 66 219 6.0 20.0 0.00 0.00 0.00 61 1010.5
20260505190005 67 228 6.0 15.0 0.00 0.00 0.00 61 1010.6
20260505185504 67 242 9.0 15.0 0.00 0.00 0.00 60 1010.7
20260505185010 67 253 5.0 15.0 0.00 0.00 0.00 61 1010.7
20260505184505 67 183 8.0 15.0 0.00 0.00 0.00 60 1010.8
20260505184009 68 210 5.0 14.0 0.00 0.00 0.00 60 1010.9
20260505183505 67 234 5.0 14.0 0.00 0.00 0.00 61 1011.0
20260505183010 67 213 3.0 14.0 0.00 0.00 0.00 63 1010.8
20260505182505 67 228 5.0 14.0 0.00 0.00 0.00 64 1010.9
20260505182009 67 258 4.0 12.0 0.00 0.00 0.00 65 1011.0
20260505181505 66 247 3.0 13.0 0.00 0.00 0.00 65 1011.0
20260505181008 66 247 6.0 16.0 0.00 0.00 0.00 64 1011.0
20260505180505 66 247 6.0 16.0 0.00 0.00 0.00 65 1011.1
20260505180005 66 242 4.0 13.0 0.00 0.00 0.00 65 1011.2
20260505175505 66 239 3.0 13.0 0.00 0.00 0.00 66 1011.2
20260505175009 66 214 5.0 14.0 0.00 0.00 0.00 68 1011.1
20260505174505 66 233 4.0 14.0 0.00 0.00 0.00 68 1011.3
20260505174009 66 225 5.0 14.0 0.00 0.00 0.00 68 1011.2
20260505173505 65 213 5.0 14.0 0.00 0.00 0.00 69 1011.1
20260505173009 65 217 6.0 13.0 0.00 0.00 0.00 69 1011.3
20260505172505 65 220 4.0 12.0 0.00 0.00 0.00 70 1011.2
20260505172009 65 217 5.0 14.0 0.00 0.00 0.00 70 1011.4
20260505171506 65 180 5.0 14.0 0.00 0.00 0.00 72 1011.4
20260505171008 65 221 2.0 10.0 0.00 0.00 0.00 73 1011.4
20260505170505 64 194 2.0 14.0 0.00 0.00 0.00 73 1011.4
20260505170005 64 199 3.0 14.0 0.00 0.00 0.00 73 1011.4
20260505165505 64 240 6.0 13.0 0.00 0.00 0.00 72 1011.4
20260505165009 65 219 6.0 13.0 0.00 0.00 0.00 71 1011.4
20260505164505 65 203 5.0 9.0 0.00 0.00 0.00 72 1011.5
20260505164009 65 210 4.0 10.0 0.00 0.00 0.00 72 1011.5
20260505163505 65 225 5.0 12.0 0.00 0.00 0.00 71 1011.5
20260505163009 65 233 6.0 12.0 0.00 0.00 0.00 71 1011.7
20260505162505 65 155 3.0 12.0 0.00 0.00 0.00 71 1011.8
20260505162009 65 138 5.0 10.0 0.00 0.00 0.00 72 1011.8
20260505161505 65 218 2.0 7.0 0.00 0.00 0.00 74 1011.7
20260505161008 65 218 2.0 7.0 0.00 0.00 0.00 74 1011.7
20260505160505 65 207 2.0 12.0 0.00 0.00 0.00 73 1011.8
20260505153009 64 230 3.0 9.0 0.00 0.00 0.00 79 1011.9
20260505152505 64 209 5.0 9.0 0.00 0.00 0.00 78 1011.9
20260505152009 63 218 2.0 8.0 0.00 0.00 0.00 80 1012.1
20260505151505 63 194 3.0 8.0 0.00 0.00 0.00 80 1012.2
20260505151008 63 214 2.0 8.0 0.00 0.00 0.00 81 1012.3
20260505150505 63 234 4.0 8.0 0.00 0.00 0.00 81 1012.3
20260505140505 62 216 5.0 9.0 0.00 0.00 0.00 85 1012.1
20260505125009 59 215 2.0 6.0 0.00 0.00 0.00 100 1011.8
20260505124505 58 225 2.0 6.0 0.00 0.00 0.00 100 1011.8
20260505124008 58 214 1.0 3.0 0.00 0.00 0.00 100 1011.8
20260505123505 58 219 1.0 3.0 0.00 0.00 0.00 100 1011.7
20260505123009 58 195 1.0 3.0 0.00 0.00 0.00 100 1011.7
20260505122505 57 187 1.0 3.0 0.00 0.00 0.00 100 1011.6
20260505122009 57 0 1.0 6.0 0.00 0.00 0.00 100 1011.7
20260505121505 57 231 2.0 6.0 0.00 0.00 0.00 100 1011.8
20260505121009 56 244 1.0 5.0 0.00 0.00 0.00 100 1011.8
20260505120504 56 242 2.0 5.0 0.00 0.00 0.00 100 1011.8
20260505120006 56 233 1.0 3.0 0.00 0.00 0.00 100 1011.8
20260505115505 56 236 1.0 3.0 0.00 0.00 0.00 100 1011.8
20260505115009 55 243 1.0 3.0 0.00 0.00 0.00 100 1011.8
20260505114505 55 240 0.0 3.0 0.00 0.00 0.00 100 1011.8
20260505114010 55 245 2.0 5.0 0.00 0.00 0.00 100 1011.9
20260505113505 55 239 1.0 5.0 0.00 0.00 0.00 100 1011.8
20260505113009 55 271 2.0 6.0 0.00 0.00 0.00 100 1011.8
20260505112505 55 246 3.0 7.0 0.00 0.00 0.00 100 1011.9
20260505112009 54 256 1.0 7.0 0.00 0.00 0.00 100 1011.9
20260505111505 54 238 3.0 7.0 0.00 0.00 0.00 100 1011.9
20260505111007 54 193 1.0 6.0 0.00 0.00 0.00 100 1011.8
20260505110505 54 242 3.0 6.0 0.00 0.00 0.00 100 1011.8
20260505102009 52 288 1.0 7.0 0.00 0.00 0.00 100 1011.2
20260505101506 52 287 0.0 3.0 0.00 0.00 0.00 100 1011.0
20260505101007 52 285 1.0 3.0 0.00 0.00 0.00 100 1010.9
20260505100506 52 286 0.0 2.0 0.00 0.00 0.00 100 1010.9
20260505100005 52 285 1.0 2.0 0.00 0.00 0.00 100 1010.9
20260505095505 52 287 1.0 2.0 0.00 0.00 0.00 100 1010.8
20260505095009 52 289 0.0 3.0 0.00 0.00 0.00 100 1010.8
20260505094505 52 290 0.0 3.0 0.00 0.00 0.00 100 1010.8
20260505094010 52 290 1.0 3.0 0.00 0.00 0.00 100 1010.7
20260505093505 52 295 1.0 3.0 0.00 0.00 0.00 100 1010.7
20260505093009 52 297 2.0 3.0 0.00 0.00 0.00 100 1010.8
20260505092505 52 294 0.0 5.0 0.00 0.00 0.00 100 1010.9
20260505092009 52 294 0.0 5.0 0.00 0.00 0.00 100 1010.9
20260505091505 53 298 1.0 5.0 0.00 0.00 0.00 100 1010.9
20260505091007 53 299 1.0 5.0 0.00 0.00 0.00 100 1010.9
20260505090505 53 295 1.0 5.0 0.00 0.00 0.00 100 1010.8
20260505090005 53 290 2.0 5.0 0.00 0.00 0.00 100 1010.8
20260505085505 53 304 2.0 5.0 0.00 0.00 0.00 100 1010.8
20260505085009 53 295 1.0 6.0 0.00 0.00 0.00 100 1010.7
20260505084505 53 258 1.0 6.0 0.00 0.00 0.00 100 1010.8
20260505084010 53 295 3.0 6.0 0.00 0.00 0.00 100 1010.9
20260505083505 53 288 0.0 6.0 0.00 0.00 0.00 100 1010.9
20260505083009 53 289 2.0 6.0 0.00 0.00 0.00 100 1011.0
20260505082505 53 316 3.0 6.0 0.00 0.00 0.00 100 1011.0
20260505082009 53 294 3.0 6.0 0.00 0.00 0.00 100 1010.9
20260505081505 53 286 3.0 6.0 0.00 0.00 0.00 100 1011.0
20260505081008 53 302 2.0 6.0 0.00 0.00 0.00 100 1010.9
20260505080505 53 292 2.0 7.0 0.00 0.00 0.00 100 1011.0
20260505080005 53 296 2.0 7.0 0.00 0.00 0.00 100 1011.0
20260505075505 53 292 1.0 3.0 0.00 0.00 0.00 100 1010.9
20260505075009 53 289 1.0 3.0 0.00 0.00 0.00 100 1010.9
20260505074505 53 305 2.0 5.0 0.00 0.00 0.00 100 1010.9
20260505074009 53 294 2.0 6.0 0.00 0.00 0.00 100 1010.9
20260505073505 53 288 2.0 7.0 0.00 0.00 0.00 100 1010.9
20260505073010 53 295 2.0 7.0 0.00 0.00 0.00 100 1010.9
20260505072505 53 289 3.0 5.0 0.00 0.00 0.00 100 1011.0
20260505072009 53 316 2.0 8.0 0.00 0.00 0.00 100 1010.9